User: anonymous   Login
Location: Beuerbach
(48.1459°N, 10.9174°E)
Time: 15:03:52
(UTC+00:00)
Language:

Cosmos 2228 Rocket - Orbit

View from above orbital plane
View from above orbital plane
View from above satellite
View from above satellite

Ground track
Ground track

The orbit data is extracted from the following two-line orbital elements,

1 22287U 92094B   24202.44539754  .00000851  00000-0  11115-3 0  9992
2 22287  82.5238 188.7667 0025465 131.6444 228.6955 14.79130257701238
Epoch (UTC): 20 July 2024 10:41:22
Eccentricity: 0.0025465
inclination: 82.5238°
perigee height: 614 km
apogee height: 650 km
right ascension of ascending node: 188.7667°
argument of perigee: 131.6444°
revolutions per day: 14.79130257
mean anomaly at epoch: 228.6955°
orbit number at epoch: 70123

The dashed part of the orbit path shows where the satellite is in the earth's shadow,  

DLR